This demonstration page uses our WeatherBlox Daily Observations layout. Learn more.

Left ArrowRight Arrow

44.8408, -93.29828

Hourly Observations for August 12, 2019

Temp ( °F °C ) Dew Point ( °F °C ) Humidity (%) Winds ( mph kmh ) Pressure ( in mb ) Visibility ( mi km ) Precip ( " mm )
12:53 am 00:53 Partly Cloudy 70 21.1 66 18.9 87 87 Calm 29.95 1014 8 13 0.00 0.00
1:53 am 01:53 Partly Cloudy 69 20.6 66 18.9 90 90 Calm 29.93 1014 7 11 0.00 0.00
2:53 am 02:53 Mostly Cloudy 68 20 65 18.3 90 90 Calm 29.92 1013 7 11 0.00 0.00
3:53 am 03:53 Mostly Cloudy with Mist and Fog 67 19.4 64 17.8 91 91 NE 3 6 29.91 1013 6 10 0.00 0.00
4:53 am 04:53 Mostly Cloudy with Mist and Fog 68 20 65 18.3 90 90 S 3 6 29.91 1013 6 10 0.00 0.00
4:55 am 04:55 Mostly Clear with Mist and Fog 68 20 65 18.3 90 90 S 3 6 29.90 1012 3 4 0.00 0.00
5:03 am 05:03 Mostly Cloudy with Mist and Fog 68 20 65 18.3 90 90 Calm 29.90 1012 6 10 0.00 0.00
5:53 am 05:53 Mostly Cloudy with Mist and Fog 67 19.4 65 18.3 93 93 ENE 6 9 29.89 1012 6 10 0.00 0.00
6:53 am 06:53 Cloudy with Mist and Fog 68 20 66 18.9 93 93 E 6 9 29.89 1012 5 8 0.00 0.00
7:53 am 07:53 Cloudy 69 20.6 66 18.9 90 90 E 6 9 29.89 1012 7 11 0.00 0.00
8:53 am 08:53 Cloudy 70 21.1 66 18.9 87 87 SE 3 6 29.89 1012 8 13 0.00 0.00
9:53 am 09:53 Cloudy 73 22.8 66 18.9 79 79 ENE 7 11 29.88 1012 10 16 0.00 0.00
10:25 am 10:25 Cloudy 73 22.8 67 19.4 81 81 E 7 11 29.86 1011 10 16 0.00 0.00
10:48 am 10:48 Cloudy 73 23 66 19 78 78 E 8 13 29.86 1011 10 16 0.00 0.00
10:53 am 10:53 Cloudy 74 23.3 67 19.4 79 79 E 9 15 29.88 1012 10 16 0.00 0.00
11:53 am 11:53 Cloudy 75 23.9 67 19.4 76 76 ENE 9 15 29.86 1011 10 16 0.00 0.00
12:53 pm 12:53 Cloudy 75 23.9 68 20 79 79 ENE 10 17 29.84 1011 10 16 0.00 0.00
1:53 pm 13:53 Cloudy 78 25.6 68 20 71 71 E 12 19 29.83 1010 10 16 0.00 0.00
2:53 pm 14:53 Cloudy 78 25.6 68 20 71 71 ENE 8 13 29.84 1010 10 16 0.00 0.00
3:23 pm 15:23 Cloudy 79 26.1 69 20.6 72 72 NE 7 11 29.80 1009 10 16 0.00 0.00
3:53 pm 15:53 Cloudy 79 26.1 68 20 69 69 NE 8 13 29.83 1010 10 16 0.00 0.00
4:53 pm 16:53 Cloudy with Light Rain 78 25.6 68 20 71 71 ENE 8 13 29.81 1010 10 16 0.00 0.00
5:53 pm 17:53 Cloudy 78 25.6 69 20.6 74 74 ENE 10 17 29.81 1010 10 16 0.00 0.00
6:53 pm 18:53 Cloudy 78 25.6 68 20 71 71 ENE 8 13 29.82 1010 10 16 0.00 0.00
7:53 pm 19:53 Mostly Cloudy 77 25 68 20 74 74 ENE 7 11 29.81 1010 10 16 0.00 0.00
8:53 pm 20:53 Mostly Cloudy 76 24.4 67 19.4 74 74 ENE 7 11 29.82 1010 10 16 0.00 0.00
9:53 pm 21:53 Mostly Cloudy 75 23.9 67 19.4 76 76 ENE 5 7 29.82 1010 10 16 0.00 0.00
10:53 pm 22:53 Cloudy 74 23.3 68 20 82 82 SSE 5 7 29.83 1010 10 16 0.00 0.00
11:40 pm 23:40 Cloudy with Heavy Rain 73 22.8 69 20.6 87 87 SW 6 9 29.82 1010 8 13 0.06 1.52
11:53 pm 23:53 Cloudy with Light Rain 72 22.2 69 20.6 91 91 W 3 6 29.83 1010 7 11 0.24 6.10

Powered by AerisWeather